Russell, KS

12:11 PM CST on February 11, 2016 (GMT -0600)
Russell Municipal

Weather History for KRSL - January, 2013

Change the Weather History Date:

Thursday, January 31, 2013

  Actual Average Record
Temperature  
Mean Temperature 18 °F -  
Max Temperature 25 °F 42 °F 84 °F (1989)
Min Temperature 10 °F 18 °F -16 °F (1979)
Degree Days  
Heating Degree Days 48    
Moisture  
Dew Point 13 °F    
Average Humidity 75    
Maximum Humidity 84    
Minimum Humidity 63    
Precipitation  
Precipitation 0.00 in - - ()
Sea Level Pressure  
Sea Level Pressure 30.24 in    
Wind  
Wind Speed 9 mph (NNE)    
Max Wind Speed 14 mph    
Max Gust Speed -    
Visibility 10 miles    
Events      
Averages and records for this station are not official NWS values.
T = Trace of Precipitation, MM = Missing Value Source: NWS Daily Summary

Daily Weather History Graph

Daily Weather History Graph

Search for Another Location

Airport or City:

Trip Planner

Search our weather history database for the weather conditions in past years. The results will help you decide how hot, cold, wet, or windy it might be!

Date:

Astronomy

Jan. 31, 2013 Rise Set
Actual Time 7:42 AM CST 5:55 PM CST
Civil Twilight 7:13 AM CST 6:24 PM CST
Nautical Twilight 6:41 AM CST 6:56 PM CST
Astronomical Twilight 6:10 AM CST 7:27 PM CST
Moon 10:56 PM CST (1/31) 9:45 AM CST (1/31)
Length of Visible Light 11h 10m
Length of Day
10h 13m
Waning Gibbous, 79% of the Moon is Illuminated
Jan 31
Waning Gibbous
Feb 3
Last Quarter
Feb 10
New
Feb 17
First Quarter
Feb 25
Full

Hourly Weather History & Observations

Time (CST) Temp. Windchill Dew Point Humidity Pressure Visibility Wind Dir Wind Speed Gust Speed Precip Events Conditions
12:53 AM 21.9 °F 9.8 °F 15.1 °F 75% 29.97 in 10.0 mi WSW 12.7 mph - N/A   Clear
1:53 AM 21.0 °F 9.9 °F 15.1 °F 78% 29.99 in 10.0 mi West 10.4 mph - N/A   Clear
2:53 AM 19.0 °F 8.2 °F 14.0 °F 81% 30.00 in 10.0 mi SW 9.2 mph - N/A   Clear
3:53 AM 23.0 °F 13.1 °F 17.1 °F 78% 30.00 in 10.0 mi WSW 9.2 mph - N/A   Mostly Cloudy
4:53 AM 24.1 °F 16.0 °F 19.0 °F 81% 30.01 in 10.0 mi WSW 6.9 mph - N/A   Overcast
5:53 AM 24.1 °F 18.2 °F 19.9 °F 84% 30.02 in 10.0 mi NW 4.6 mph - N/A   Overcast
6:53 AM 25.0 °F 14.8 °F 19.9 °F 81% 30.07 in 9.0 mi NNE 10.4 mph - N/A   Mostly Cloudy
7:53 AM 21.9 °F 11.7 °F 14.0 °F 72% 30.11 in 10.0 mi NE 9.2 mph - N/A   Overcast
8:53 AM 21.9 °F 11.7 °F 14.0 °F 72% 30.19 in 10.0 mi NNE 9.2 mph - N/A   Mostly Cloudy
9:53 AM 23.0 °F 14.7 °F 15.1 °F 72% 30.24 in 10.0 mi NNE 6.9 mph - N/A   Overcast
10:53 AM 24.1 °F 12.5 °F 17.1 °F 75% 30.28 in 10.0 mi North 12.7 mph - N/A   Overcast
11:53 AM 25.0 °F 13.6 °F 18.0 °F 75% 30.30 in 10.0 mi NNE 12.7 mph - N/A   Overcast
12:53 PM 24.1 °F - 15.1 °F 69% 30.33 in 10.0 mi North - - N/A   Overcast
2:53 PM 23.0 °F 11.1 °F 12.9 °F 65% 30.35 in 10.0 mi NNE 12.7 mph - N/A   Scattered Clouds
3:53 PM 23.0 °F 10.6 °F 12.0 °F 63% 30.36 in 10.0 mi North 13.8 mph - N/A   Clear
4:53 PM 21.9 °F 11.7 °F 10.9 °F 63% 30.38 in 10.0 mi North 9.2 mph - N/A   Clear
5:53 PM 17.6 °F 10.7 °F 8.6 °F 68% 30.30 in 10.0 mi NE 4.6 mph - N/A   Clear
6:53 PM 14.0 °F 5.1 °F 7.0 °F 74% 30.42 in 10.0 mi ESE 5.8 mph - N/A   Partly Cloudy
7:53 PM 10.0 °F 0.4 °F 5.0 °F 80% 30.46 in 10.0 mi SSE 5.8 mph - 0.00 in   Clear
8:53 PM 10.9 °F 1.4 °F 6.1 °F 81% 30.46 in 10.0 mi SE 5.8 mph - 0.00 in   Partly Cloudy
9:53 PM 10.0 °F 0.4 °F 6.1 °F 84% 30.47 in 10.0 mi South 5.8 mph - N/A   Scattered Clouds
10:53 PM 12.2 °F 1.7 °F 6.8 °F 79% 30.34 in 10.0 mi East 6.9 mph - N/A   Mostly Cloudy
11:53 PM 14.0 °F 6.5 °F 8.1 °F 77% 30.45 in 10.0 mi South 4.6 mph - N/A   Overcast